Regional Weather Roundup
Issued by NWS

Home | Current Version | Previous Version | Text Only | Print | Product List | Glossary On
Versions: 1 2 3 4 5 6 7 8 9 10 11 12 13 14 15 16 17 18 19 20 21 22 23 24 25 26 27
000
ASUS46 KSEW 221510
RWRWA

WASHINGTON REGIONAL WEATHER ROUNDUP
NATIONAL WEATHER SERVICE SEATTLE WA
800 AM PDT TUE AUG 22 2017

NOTE:"FAIR" INDICATES FEW OR NO CLOUDS BELOW 12,000 FEET WITH NO
SIGNIFICANT WEATHER AND/OR OBSTRUCTIONS TO VISIBILITY.

WAZ507-509-555>559-221600-
SEATTLE, TACOMA, EVERETT, AND VICINITY

CITY           SKY/WX    TMP DP  RH WIND       PRES   REMARKS
EVERETT        SUNNY     65  54  67 CALM      30.03R
BOEING FIELD   SUNNY     64  57  78 NW3       30.01S
RENTON         SUNNY     63  57  81 CALM      30.01R
SEATAC AIRPORT SUNNY     64  55  72 NW3       30.03R
JBLM-MCCHORD   SUNNY     59  57  94 CALM      30.02R
PUYALLUP       FAIR      63  57  82 CALM      30.03R
BREMERTON      SUNNY     63  54  72 CALM      30.03R
JBLM-FT LEWIS  SUNNY     58  55  87 CALM      30.02R
TACOMA NARROWS SUNNY     61  54  77 CALM      30.03R
$$

WAZ001-503-506-510-514-515-221600-
NORTH INTERIOR

CITY           SKY/WX    TMP DP  RH WIND       PRES   REMARKS
BELLINGHAM     SUNNY     62  59  90 CALM      30.00S
FRIDAY HARBOR  SUNNY     62  56  80 CALM      30.02R
EASTSOUND      SUNNY     63  57  82 CALM      30.01R
PORT ANGELES   SUNNY     62  56  80 CALM      30.02R
EDIZ HOOK      FAIR      56  53  90 CALM      30.02R
PORT TOWNSEND  FAIR      57  54  88 CALM      30.02S
NAS WHIDBEY    MOSUNNY   61  53  75 VRB3      30.05R
ARLINGTON      SUNNY     57  53  86 MISG      30.02S
BURLINGTON     SUNNY     59  55  88 CALM      30.01S
$$

WAZ020-022-039-040-504-511-512-221600-
SOUTHWEST INTERIOR

CITY           SKY/WX    TMP DP  RH WIND       PRES   REMARKS
SHELTON        SUNNY     58  51  78 CALM      30.00R
OLYMPIA        SUNNY     58  53  84 CALM      30.03R
CHEHALIS       FAIR      59  54  82 CALM      30.03S
KELSO          PTSUNNY   59  57  93 N3        30.04R
VANCOUVER      SUNNY     65  58  78 CALM      30.02R
SCAPPOOSE, OR  SUNNY     61  55  81 CALM      30.02R
PORTLAND, OR   PTSUNNY   64  56  75 E3        30.03R
$$

WAZ021-516-517-221600-
WASHINGTON COAST

CITY           SKY/WX    TMP DP  RH WIND       PRES   REMARKS
FORKS          SUNNY     56  55  97 W5        30.03R
HOQUIAM        MOSUNNY   55  54  96 W3        30.04R
ASTORIA, OR    CLOUDY    54  53  97 S6        30.04S FOG
$$

WAZ019-023-024-040-567>569-221600-
CASCADE MOUNTAINS AND COLUMBIA GORGE

CITY           SKY/WX    TMP DP  RH WIND       PRES   REMARKS
STAMPEDE PASS  SUNNY     67  41  38 VRB3      30.16R
TROUTDALE, OR  SUNNY     61  53  75 E5        30.03R
HOOD RIVER, OR SUNNY     57  46  67 CALM      30.04R
THE DALLES, OR SUNNY     62  46  55 SE3       30.00R
$$

WAZ026-027-041>044-520-521-221600-
EAST SLOPES

CITY           SKY/WX    TMP DP  RH WIND       PRES   REMARKS
OMAK           SUNNY     67  41  38 N7        30.07R
WENATCHEE      SUNNY     63  46  54 W6        30.05R
ELLENSBURG     SUNNY     62  44  51 E5        30.07R
YAKIMA         SUNNY     63  48  58 W9        30.04R
SUNNYSIDE ARPT   N/A     52  50  93 CALM      30.01S
YAKIMA TC      FAIR      64  42  44 CALM      30.03R
$$

WAZ028-034-035-221600-
COLUMBIA BASIN

CITY           SKY/WX    TMP DP  RH WIND       PRES   REMARKS
EPHRATA        SUNNY     69  44  40 NE8       30.03S
MOSES LAKE     SUNNY     66  43  43 NE10      30.03S
PASCO          SUNNY     58  52  80 CALM      30.01R
RICHLAND ARPT  SUNNY     64  55  72 CALM      30.01R
HERMISTON, OR  SUNNY     62  47  57 S6        30.00R
$$

WAZ036>038-221600-
NORTHEAST WASHINGTON

CITY           SKY/WX    TMP DP  RH WIND       PRES   REMARKS
SPOKANE GEIGER MOSUNNY   67  47  48 NE9       30.09R
SPOKANE FELTS  SUNNY     66  48  52 CALM      30.09R
FAIRCHILD AFB  SUNNY     66  46  47 NE7       30.09R
COEURDALENE,ID SUNNY     64  48  56 NE8       30.11R
DEER PARK      SUNNY     61  45  55 CALM      30.10R
$$

WAZ029>033-221600-
SOUTHEAST WASHINGTON

CITY           SKY/WX    TMP DP  RH WIND       PRES   REMARKS
PULLMAN        SUNNY     70  43  37 E12       30.09S
LEWISTON, ID   SUNNY     66  46  48 NE5       30.06R
WALLA WALLA    SUNNY     70  47  43 CALM      30.01R
PENDLETON, OR  SUNNY     62  43  49 SE7       30.02R
$$




USA.gov is the U.S. government's official web portal to all federal, state and local government web resources and services.